Location: Asheville, NC
(35.6000°N, 82.5500°W)
Time: 17:25:02

XW-2B - Pass Details

Date: 09 March 2018
Orbit: 511 x 530 km, 97.5° (Epoch: 18 March)

Event Time Altitude Azimuth Distance (km) Brightness Sun altitude
Rises 06:02:04 0° 22° (NNE) 2,654 ? -10.4°
Reaches altitude 10° 06:04:20 10° 33° (NNE) 1,764 ? -10.0°
Maximum altitude 06:07:47 32° 98° (E) 907 ? -9.3°
Drops below altitude 10° 06:11:13 10° 163° (SSE) 1,761 ? -8.6°
Sets 06:13:28 0° 173° (S) 2,647 ? -8.1°
